Radiation Dose at Monitoring Post of Fukushima Daini Nuclear Power Station
Date,Time,MP-1(microSv/h),MP-2(microSv/h),MP-3(microSv/h),MP-4(microSv/h),MP-5(microSv/h),MP-6(microSv/h),MP-7(microSv/h),Wind Direction,Wind Velocity(m/s),Rain
2016/05/05,00:00,0.434,0.253,0.452,0.403,0.386,0.206,0.177,southwest,8.6,No
2016/05/05,00:10,0.438,0.254,0.457,0.401,0.384,0.206,0.177,southwest,7.4,No
2016/05/05,00:20,0.435,0.254,0.455,0.401,0.386,0.205,0.176,southwest,6.0,No
2016/05/05,00:30,0.439,0.253,0.454,0.403,0.384,0.204,0.176,southwest,7.3,No
2016/05/05,00:40,0.435,0.253,0.455,0.401,0.385,0.206,0.177,southwest,5.9,No
2016/05/05,00:50,0.437,0.253,0.453,0.405,0.383,0.206,0.177,southwest,7.2,No
2016/05/05,01:00,0.436,0.254,0.455,0.401,0.385,0.206,0.176,southwest,6.9,No
2016/05/05,01:10,0.435,0.254,0.454,0.403,0.384,0.205,0.176,southwest,6.7,No
2016/05/05,01:20,0.437,0.253,0.456,0.402,0.383,0.205,0.177,west-southwest,6.2,No
2016/05/05,01:30,0.434,0.255,0.454,0.402,0.385,0.205,0.176,west-southwest,8.0,No
2016/05/05,01:40,0.438,0.253,0.458,0.402,0.384,0.206,0.177,west-southwest,8.0,No
2016/05/05,01:50,0.435,0.253,0.455,0.400,0.384,0.206,0.176,southwest,7.0,No
2016/05/05,02:00,0.437,0.256,0.455,0.403,0.382,0.205,0.176,southwest,7.5,No
2016/05/05,02:10,0.435,0.253,0.456,0.401,0.385,0.205,0.176,southwest,8.5,No
2016/05/05,02:20,0.434,0.253,0.453,0.403,0.383,0.206,0.177,southwest,8.9,No
2016/05/05,02:30,0.437,0.254,0.455,0.402,0.384,0.205,0.176,southwest,9.0,No
2016/05/05,02:40,0.435,0.253,0.453,0.401,0.385,0.205,0.176,southwest,9.0,No
2016/05/05,02:50,0.438,0.253,0.455,0.404,0.383,0.205,0.175,southwest,8.8,No
2016/05/05,03:00,0.435,0.253,0.454,0.401,0.386,0.206,0.175,southwest,7.9,No
2016/05/05,03:10,0.437,0.254,0.457,0.403,0.383,0.205,0.175,southwest,7.0,No
2016/05/05,03:20,0.436,0.253,0.454,0.401,0.386,0.205,0.176,southwest,7.1,No
2016/05/05,03:30,0.437,0.253,0.455,0.401,0.384,0.206,0.176,southwest,6.8,No
2016/05/05,03:40,0.437,0.254,0.455,0.402,0.386,0.205,0.176,southwest,5.4,No
2016/05/05,03:50,0.435,0.253,0.455,0.401,0.385,0.206,0.175,southwest,6.5,No
2016/05/05,04:00,0.439,0.254,0.458,0.403,0.385,0.206,0.177,west-southwest,7.8,No
2016/05/05,04:10,0.437,0.254,0.452,0.401,0.386,0.205,0.176,west-southwest,7.8,No
2016/05/05,04:20,0.437,0.252,0.455,0.405,0.384,0.206,0.177,west-southwest,7.9,No
2016/05/05,04:30,0.436,0.254,0.453,0.403,0.387,0.205,0.177,west-southwest,7.7,No
2016/05/05,04:40,0.438,0.254,0.455,0.401,0.383,0.206,0.177,west-southwest,7.8,No
2016/05/05,04:50,0.437,0.253,0.457,0.403,0.387,0.205,0.176,west-southwest,7.9,No
2016/05/05,05:00,0.437,0.255,0.453,0.401,0.386,0.205,0.178,southwest,6.8,No
2016/05/05,05:10,0.439,0.253,0.456,0.403,0.383,0.206,0.176,southwest,6.5,No
2016/05/05,05:20,0.435,0.254,0.454,0.402,0.384,0.206,0.176,west-southwest,4.2,No
2016/05/05,05:30,0.437,0.254,0.458,0.403,0.383,0.207,0.177,north,4.3,No
2016/05/05,05:40,0.435,0.253,0.456,0.403,0.385,0.206,0.176,west-northwest,4.0,No
2016/05/05,05:50,0.438,0.253,0.455,0.402,0.384,0.205,0.176,west-northwest,3.3,No
2016/05/05,06:00,0.436,0.253,0.457,0.404,0.387,0.207,0.177,west-southwest,1.6,No
2016/05/05,06:10,0.437,0.254,0.455,0.401,0.382,0.206,0.178,northeast,1.3,No
2016/05/05,06:20,0.437,0.253,0.454,0.404,0.387,0.205,0.176,east-northeast,0.8,No
2016/05/05,06:30,0.436,0.255,0.453,0.400,0.383,0.206,0.177,east-northeast,2.8,No
2016/05/05,06:40,0.437,0.253,0.455,0.404,0.388,0.206,0.175,north-northeast,2.7,No
2016/05/05,06:50,0.436,0.255,0.453,0.400,0.381,0.206,0.177,north-northwest,2.8,No
2016/05/05,07:00,0.436,0.252,0.456,0.402,0.387,0.204,0.176,northwest,2.5,No
2016/05/05,07:10,0.438,0.254,0.455,0.400,0.383,0.205,0.177,west-northwest,5.5,No
2016/05/05,07:20,0.435,0.251,0.448,0.400,0.386,0.207,0.177,west-northwest,7.2,No
2016/05/05,07:30,0.437,0.253,0.457,0.403,0.385,0.204,0.175,west-northwest,9.4,No
2016/05/05,07:40,0.433,0.254,0.452,0.399,0.383,0.205,0.178,west,11.6,No
2016/05/05,07:50,0.439,0.252,0.455,0.404,0.385,0.206,0.177,west-northwest,11.8,No
2016/05/05,08:00,0.437,0.254,0.457,0.402,0.383,0.208,0.176,west,11.5,No
2016/05/05,08:10,0.438,0.253,0.456,0.403,0.389,0.205,0.178,west,11.0,No
2016/05/05,08:20,0.439,0.254,0.458,0.406,0.384,0.206,0.176,west-northwest,10.6,No
2016/05/05,08:30,0.436,0.253,0.453,0.400,0.386,0.207,0.177,west,11.2,No
2016/05/05,08:40,0.440,0.255,0.458,0.405,0.387,0.206,0.178,west-northwest,10.2,No
2016/05/05,08:50,0.434,0.253,0.455,0.404,0.382,0.205,0.175,west-northwest,8.9,No
2016/05/05,09:00,0.439,0.252,0.455,0.400,0.382,0.205,0.176,west-northwest,8.6,No
2016/05/05,09:10,0.438,0.253,0.458,0.398,0.387,0.205,0.177,northwest,8.1,No
2016/05/05,09:20,0.436,0.255,0.454,0.397,0.384,0.206,0.178,west-northwest,9.2,No
2016/05/05,09:30,0.433,0.254,0.458,0.398,0.382,0.207,0.178,west-northwest,9.0,No
2016/05/05,09:40,0.440,0.253,0.457,0.397,0.381,0.205,0.177,west,7.1,No
2016/05/05,09:50,0.440,0.252,0.453,0.396,0.388,0.206,0.176,west,6.0,No
2016/05/05,10:00,0.437,0.254,0.458,0.399,0.387,0.207,0.176,west,5.4,No
2016/05/05,10:10,0.434,0.256,0.457,0.400,0.385,0.205,0.177,west-southwest,5.6,No
2016/05/05,10:20,0.434,0.255,0.455,0.402,0.384,0.207,0.177,west-southwest,7.2,No
2016/05/05,10:30,0.435,0.255,0.452,0.402,0.382,0.208,0.177,west,2.9,No
2016/05/05,10:40,0.443,0.253,0.451,0.402,0.383,0.209,0.177,west-southwest,5.3,No
2016/05/05,10:50,0.442,0.253,0.452,0.404,0.384,0.208,0.177,southwest,6.4,No
2016/05/05,11:00,0.439,0.253,0.453,0.404,0.383,0.206,0.178,west-southwest,4.2,No
2016/05/05,11:10,0.435,0.257,0.459,0.405,0.390,0.206,0.176,west-northwest,5.9,No
2016/05/05,11:20,0.441,0.256,0.459,0.406,0.391,0.208,0.179,west-northwest,5.8,No
2016/05/05,11:30,0.441,0.255,0.455,0.407,0.388,0.209,0.180,west,3.5,No
2016/05/05,11:40,0.439,0.253,0.454,0.405,0.384,0.207,0.179,west-southwest,3.5,No
2016/05/05,11:50,0.439,0.257,0.460,0.402,0.384,0.207,0.178,west-southwest,5.1,No
2016/05/05,12:00,0.442,0.256,0.459,0.407,0.390,0.207,0.179,west-southwest,2.4,No
2016/05/05,12:10,0.439,0.254,0.456,0.409,0.388,0.209,0.179,west-northwest,2.8,No
2016/05/05,12:20,0.444,0.256,0.461,0.405,0.385,0.208,0.177,northwest,2.9,No
2016/05/05,12:30,0.446,0.256,0.461,0.407,0.390,0.207,0.179,northwest,1.6,No
2016/05/05,12:40,0.439,0.254,0.456,0.411,0.389,0.207,0.180,northwest,3.5,No
2016/05/05,12:50,0.442,0.257,0.461,0.405,0.386,0.208,0.178,north-northwest,3.6,No
2016/05/05,13:00,0.444,0.257,0.459,0.402,0.387,0.206,0.178,west-northwest,2.5,No
2016/05/05,13:10,0.439,0.254,0.457,0.408,0.392,0.208,0.178,west,2.0,No
2016/05/05,13:20,0.445,0.258,0.460,0.409,0.388,0.209,0.179,west-northwest,3.5,No
2016/05/05,13:30,0.443,0.255,0.460,0.405,0.383,0.207,0.179,northwest,3.0,No
2016/05/05,13:40,0.436,0.253,0.456,0.402,0.383,0.207,0.178,northwest,2.8,No
2016/05/05,13:50,0.444,0.256,0.458,0.408,0.389,0.207,0.178,west-northwest,6.4,No
2016/05/05,14:00,0.444,0.257,0.459,0.408,0.388,0.208,0.178,west,8.2,No
2016/05/05,14:10,0.441,0.255,0.459,0.405,0.387,0.208,0.177,west,5.4,No
2016/05/05,14:20,0.437,0.254,0.458,0.404,0.385,0.208,0.177,northwest,7.9,No
2016/05/05,14:30,0.436,0.253,0.455,0.402,0.386,0.207,0.178,northwest,6.8,No
2016/05/05,14:40,0.439,0.253,0.456,0.403,0.385,0.207,0.178,northwest,7.2,No
2016/05/05,14:50,0.444,0.254,0.455,0.401,0.385,0.208,0.178,west-northwest,9.4,No
2016/05/05,15:00,0.442,0.255,0.455,0.404,0.384,0.207,0.177,northwest,6.7,No
2016/05/05,15:10,0.438,0.257,0.454,0.412,0.384,0.208,0.178,west,10.0,No
2016/05/05,15:20,0.446,0.256,0.458,0.407,0.385,0.207,0.180,northwest,8.7,No
2016/05/05,15:30,0.445,0.255,0.464,0.406,0.384,0.209,0.179,west-northwest,6.0,No
2016/05/05,15:40,0.442,0.258,0.461,0.412,0.384,0.208,0.179,northwest,4.5,No
2016/05/05,15:50,0.443,0.257,0.459,0.409,0.386,0.209,0.181,northwest,7.9,No
2016/05/05,16:00,0.446,0.256,0.464,0.410,0.389,0.207,0.179,northwest,5.6,No
2016/05/05,16:10,0.442,0.259,0.463,0.412,0.391,0.209,0.180,northwest,6.7,No
2016/05/05,16:20,0.444,0.257,0.459,0.408,0.390,0.209,0.181,north-northwest,7.5,No
2016/05/05,16:30,0.447,0.258,0.467,0.409,0.387,0.209,0.180,northwest,8.0,No
2016/05/05,16:40,0.441,0.257,0.461,0.410,0.385,0.208,0.181,north-northwest,10.0,No
2016/05/05,16:50,0.446,0.257,0.464,0.407,0.389,0.207,0.180,northwest,11.2,No
2016/05/05,17:00,0.445,0.258,0.464,0.412,0.393,0.209,0.181,northwest,11.2,No
2016/05/05,17:10,0.443,0.256,0.459,0.406,0.388,0.208,0.180,west-northwest,10.7,No
2016/05/05,17:20,0.449,0.257,0.468,0.411,0.388,0.208,0.180,west-northwest,7.7,No
2016/05/05,17:30,0.443,0.256,0.461,0.409,0.392,0.207,0.181,west-northwest,10.7,No
2016/05/05,17:40,0.446,0.258,0.464,0.409,0.388,0.208,0.180,west-northwest,10.2,No
2016/05/05,17:50,0.445,0.256,0.464,0.410,0.392,0.208,0.181,northwest,9.3,No
2016/05/05,18:00,0.443,0.257,0.462,0.409,0.390,0.208,0.180,northwest,6.3,No
2016/05/05,18:10,0.448,0.257,0.464,0.411,0.391,0.211,0.179,west-northwest,5.0,No
2016/05/05,18:20,0.443,0.257,0.462,0.408,0.392,0.209,0.179,north-northeast,2.5,No
2016/05/05,18:30,0.446,0.257,0.466,0.413,0.388,0.209,0.181,north-northwest,3.0,No
2016/05/05,18:40,0.443,0.256,0.461,0.407,0.392,0.208,0.180,northwest,2.6,No
2016/05/05,18:50,0.445,0.256,0.467,0.410,0.389,0.209,0.181,west-northwest,4.4,No
2016/05/05,19:00,0.445,0.257,0.461,0.408,0.393,0.209,0.180,west,5.3,No
2016/05/05,19:10,0.445,0.257,0.465,0.411,0.389,0.210,0.180,west,3.3,No
2016/05/05,19:20,0.443,0.257,0.459,0.407,0.390,0.209,0.180,northwest,2.0,No
2016/05/05,19:30,0.445,0.257,0.466,0.409,0.389,0.209,0.180,north,3.6,No
2016/05/05,19:40,0.444,0.257,0.461,0.408,0.390,0.208,0.181,north,4.5,No
2016/05/05,19:50,0.445,0.257,0.465,0.411,0.389,0.208,0.181,north-northeast,4.5,No
2016/05/05,20:00,0.446,0.258,0.461,0.409,0.389,0.209,0.181,east,2.8,No
2016/05/05,20:10,0.444,0.257,0.464,0.412,0.390,0.208,0.181,east,4.4,No
2016/05/05,20:20,0.446,0.258,0.460,0.408,0.387,0.208,0.180,south,2.5,No
2016/05/05,20:30,0.444,0.256,0.466,0.410,0.391,0.209,0.181,southwest,0.9,No
2016/05/05,20:40,0.445,0.259,0.461,0.408,0.386,0.209,0.181,south-southwest,4.8,No
2016/05/05,20:50,0.445,0.255,0.465,0.411,0.391,0.208,0.181,south-southwest,2.5,No
2016/05/05,21:00,0.446,0.257,0.460,0.408,0.388,0.209,0.181,southwest,3.3,No
2016/05/05,21:10,0.444,0.258,0.465,0.412,0.390,0.209,0.180,south-southwest,4.2,No
2016/05/05,21:20,0.446,0.258,0.461,0.407,0.388,0.209,0.182,south-southwest,4.2,No
2016/05/05,21:30,0.444,0.258,0.463,0.410,0.392,0.208,0.180,south-southwest,3.1,No
2016/05/05,21:40,0.446,0.257,0.460,0.408,0.388,0.209,0.181,south-southwest,3.5,No
2016/05/05,21:50,0.444,0.258,0.464,0.410,0.392,0.209,0.180,south,3.5,No
2016/05/05,22:00,0.445,0.258,0.461,0.408,0.388,0.209,0.181,south,3.7,No
2016/05/05,22:10,0.444,0.259,0.465,0.409,0.390,0.209,0.180,south-southwest,3.4,No
2016/05/05,22:20,0.442,0.255,0.462,0.409,0.389,0.208,0.181,west-southwest,2.8,No
2016/05/05,22:30,0.446,0.258,0.467,0.411,0.390,0.208,0.181,southwest,6.7,No
2016/05/05,22:40,0.443,0.257,0.462,0.408,0.390,0.209,0.181,west-southwest,4.9,No
2016/05/05,22:50,0.447,0.258,0.464,0.411,0.391,0.209,0.181,west,6.2,No
2016/05/05,23:00,0.443,0.257,0.460,0.408,0.390,0.209,0.181,west,6.5,No
2016/05/05,23:10,0.446,0.257,0.465,0.410,0.389,0.209,0.180,west,4.4,No
2016/05/05,23:20,0.444,0.257,0.461,0.411,0.391,0.209,0.182,west,3.3,No
2016/05/05,23:30,0.444,0.256,0.467,0.409,0.388,0.208,0.181,west-southwest,3.2,No
2016/05/05,23:40,0.443,0.257,0.462,0.409,0.391,0.209,0.181,west-southwest,4.3,No
2016/05/05,23:50,0.447,0.257,0.464,0.409,0.386,0.208,0.181,west-southwest,6.2,No
